Regional Weather Roundup
Issued by NWS

Home | Current Version | Previous Version | Text Only | Print | Product List | Glossary Off
Versions: 1 2 3 4 5 6 7 8 9 10 11 12 13 14 15 16 17 18 19 20 21 22 23 24 25 26 27 28 29 30 31 32 33 34 35 36 37 38 39 40 41 42 43 44 45 46 47 48 49 50

000
ASUS43 KLSX 262310
RWRMO

WEATHER SUMMARY FOR MISSOURI
NATIONAL WEATHER SERVICE SPRINGFIELD MO
600 PM CDT THU MAY 26 2016

NOTE: "FAIR" INDICATES FEW OR NO CLOUDS BELOW 12,000 FEET WITH NO
       SIGNIFICANT WEATHER AND/OR OBSTRUCTIONS TO VISIBILITY.
       CURRENT SKY AND/OR WEATHER CONDITIONS ARE NOT AVAILABLE FOR
       CHILLICOTHE AND FARMINGTON.

MOZ001>031-035>038-043-044-053-054-270000-
...NORTHERN AND WESTERN MISSOURI...

CITY           SKY/WX    TMP DP  RH WIND       PRES   REMARKS
KANSAS CTY INT TSTM      62  60  93 NE23G39   29.88F
KANSAS C DTWN  TSTM      64  61  90 N18G24    29.85F FOG
LEE`S SUMMIT   TSTM      63  61  93 N17G30    29.88R FOG
ST JOSEPH      TSTM      63  61  93 E22       29.81F
CHILLICOTHE      N/A     65  63  93 NW5       29.86S
KIRKSVILLE     CLOUDY    73  64  73 CALM      29.82R

$$
MOZ066>068-077>081-088>096-101>105-270000-
...SOUTHWEST MISSOURI...

CITY           SKY/WX    TMP DP  RH WIND       PRES   REMARKS
SPRINGFIELD    CLOUDY    81  69  67 S17       29.82S
JOPLIN         CLOUDY    82  70  66 S20G32    29.80R
BRANSON        CLOUDY    75  68  78 S13G18    29.90F

$$
MOZ032>034-039>042-045>050-055>058-069>072-270000-
...CENTRAL MISSOURI...

CITY           SKY/WX    TMP DP  RH WIND       PRES   REMARKS
COLUMBIA       CLOUDY    81  66  60 E6        29.79F
JEFFERSON CITY CLOUDY    83  65  54 E9        29.79F
ROLLA          CLOUDY    78  68  71 SE9       29.82F
SEDALIA        TSTM      78  69  73 E8        29.79S
WHITEMAN AFB   LGT RAIN  66  66 100 E15       29.78F
WARRENSBURG    CLOUDY    70  64  83 E14       29.79F

$$
MOZ051-052-059>065-270000-
...EAST CENTRAL MISSOURI...

CITY           SKY/WX    TMP DP  RH WIND       PRES   REMARKS
ST LOUIS INTL  MOSUNNY   81  65  58 S8        29.87F
SPIRIT OF STL  MOSUNNY   80  68  66 S3        29.85F
ST CHARLES     SUNNY     80  69  69 S12       29.85S

$$
MOZ072>076-082>087-097>100-106>115-270000-
...SOUTH CENTRAL AND SOUTHEAST MISSOURI...

CITY           SKY/WX    TMP DP  RH WIND       PRES   REMARKS
CAPE GIRARDEAU CLOUDY    71  66  84 SE14      29.90F
FARMINGTON     SUNNY     75  67  76 S8        29.90F
POPLAR BLUFF   PTSUNNY   73  67  81 SE8       29.92F
WEST PLAINS    CLOUDY    79  68  69 S15G25    29.89F

$$




USA.gov is the U.S. government's official web portal to all federal, state and local government web resources and services.